Hourly Data Report for October 27, 2013

All times are specified in Local Standard Time (LST). Add 1 hour to adjust for Daylight Saving Time where and when it is observed.

OTTAWA INTL A
ONTARIO

45°19'00.000" N
75°40'00.000" W
114.90 m
6106001
71628
YOW

Download Data

Hourly Data (October 2013)
Hourly Data Report for October 27, 2013
Temp Definition
°C
Dew Point Temp Definition
°C
Rel Hum Definition
%
Wind Dir Definition
10's deg

Wind Spd Definition
km/h
Visibility Definition
km
Stn Press Definition
kPa
Hmdx Definition


Wind Chill Definition


Weather Definition


TIME
00:00 Legend Double Dagger 3.4 2.5 94 21 10 24.1 99.19     LegendNANA
01:00 Legend Double Dagger 4.0 3.0 93 22 11 24.1 99.20     Mostly Cloudy
02:00 Legend Double Dagger 4.3 3.1 92 22 11 24.1 99.21     LegendNANA
03:00 Legend Double Dagger 4.7 3.4 91 24 13 24.1 99.23     LegendNANA
04:00 Legend Double Dagger 4.6 2.3 85 28 16 24.1 99.31     Mostly Cloudy
05:00 Legend Double Dagger 3.9 1.5 84 29 14 24.1 99.40     LegendNANA
06:00 Legend Double Dagger 3.3 1.2 86 28 20 24.1 99.47     LegendNANA
07:00 Legend Double Dagger 3.4 0.8 83 28 19 24.1 99.59     Mostly Cloudy
08:00 Legend Double Dagger 3.6 1.0 83 27 17 24.1 99.72     LegendNANA
09:00 Legend Double Dagger 4.3 0.5 76 27 23 24.1 99.78     LegendNANA
10:00 Legend Double Dagger 5.3 -0.5 66 28 21 24.1 99.84     Cloudy
11:00 Legend Double Dagger 6.1 -2.0 56 29 23 24.1 99.88     LegendNANA
12:00 Legend Double Dagger 5.6 -2.5 56 27 27 24.1 99.90     LegendNANA
13:00 Legend Double Dagger 5.7 -2.4 56 29 22 24.1 99.91     Cloudy
14:00 Legend Double Dagger 5.8 -1.8 58 31 16 24.1 99.92     LegendNANA
15:00 Legend Double Dagger 6.7 -2.2 53 30 18 24.1 99.94     LegendNANA
16:00 Legend Double Dagger 5.8 -2.3 56 30 14 24.1 99.97     Mostly Cloudy
17:00 Legend Double Dagger 4.0 -2.0 65 30 9 24.1 100.03     LegendNANA
18:00 Legend Double Dagger 3.6 -2.2 66 29 6 24.1 100.08     LegendNANA
19:00 Legend Double Dagger 2.9 -1.8 71 28 5 24.1 100.12     Cloudy
20:00 Legend Double Dagger 3.1 -2.0 69 22 7 24.1 100.14     LegendNANA
21:00 Legend Double Dagger 2.9 -1.3 74 20 7 24.1 100.14     LegendNANA
22:00 Legend Double Dagger 2.8 -1.4 74 19 8 24.1 100.15     Cloudy
23:00 Legend Double Dagger 3.0 -0.6 77 19 9 24.1 100.11     LegendNANA

Notes on Data Quality.

Legend

  • E = Estimated
  • M = Missing
  • NA = Not Available
  • ‡ = Partner data that is not subject to review by the National Climate Archives
Date modified: